| time (UTC) | temp C | wind direction | speed KPH | gust KPH | rain 1hr cm | rain 24hr cm | rain mn cm | humidity % | barometer mb |
| 20260906212020 | 31 | 122 | 16.1 | 27.4 | 0.00 | 0.00 | 0.00 | 25 | 1014.1 |
| 20260906211547 | 31 | 112 | 17.7 | 27.4 | 0.00 | 0.00 | 0.00 | 22 | 1014.0 |
| 20260906211017 | 32 | 87 | 16.1 | 29.0 | 0.00 | 0.00 | 0.00 | 22 | 1013.8 |
| 20260906210518 | 32 | 101 | 14.5 | 30.6 | 0.00 | 0.00 | 0.00 | 22 | 1013.9 |
| 20260906210050 | 32 | 88 | 17.7 | 35.4 | 0.00 | 0.00 | 0.00 | 21 | 1013.8 |
| 20260906205524 | 32 | 94 | 17.7 | 35.4 | 0.00 | 0.00 | 0.00 | 21 | 1013.9 |
| 20260906205022 | 32 | 59 | 17.7 | 33.8 | 0.00 | 0.00 | 0.00 | 21 | 1014.0 |
| 20260906204554 | 33 | 79 | 14.5 | 27.4 | 0.00 | 0.00 | 0.00 | 21 | 1014.0 |
| 20260906204019 | 33 | 97 | 6.4 | 27.4 | 0.00 | 0.00 | 0.00 | 20 | 1014.0 |
| 20260906203521 | 33 | 128 | 9.7 | 19.3 | 0.00 | 0.00 | 0.00 | 20 | 1014.2 |
| 20260906203045 | 33 | 114 | 11.3 | 19.3 | 0.00 | 0.00 | 0.00 | 19 | 1014.3 |
| 20260906202521 | 33 | 72 | 9.7 | 17.7 | 0.00 | 0.00 | 0.00 | 20 | 1014.3 |
| 20260906202021 | 32 | 122 | 6.4 | 24.1 | 0.00 | 0.00 | 0.00 | 21 | 1014.4 |
| 20260906201549 | 32 | 69 | 11.3 | 24.1 | 0.00 | 0.00 | 0.00 | 20 | 1014.6 |
| 20260906201023 | 32 | 79 | 12.9 | 22.5 | 0.00 | 0.00 | 0.00 | 20 | 1014.6 |
| 20260906200527 | 32 | 63 | 8.0 | 19.3 | 0.00 | 0.00 | 0.00 | 21 | 1014.7 |
| 20260906200045 | 32 | 70 | 11.3 | 19.3 | 0.00 | 0.00 | 0.00 | 21 | 1014.8 |
| 20260906195526 | 32 | 61 | 8.0 | 17.7 | 0.00 | 0.00 | 0.00 | 21 | 1014.8 |
| 20260906195028 | 32 | 124 | 11.3 | 17.7 | 0.00 | 0.00 | 0.00 | 22 | 1014.9 |
| 20260906194601 | 32 | 84 | 11.3 | 17.7 | 0.00 | 0.00 | 0.00 | 21 | 1014.7 |
| 20260906194025 | 32 | 87 | 8.0 | 17.7 | 0.00 | 0.00 | 0.00 | 21 | 1014.9 |
| 20260906193524 | 32 | 101 | 8.0 | 17.7 | 0.00 | 0.00 | 0.00 | 21 | 1014.9 |
| 20260906193043 | 31 | 49 | 8.0 | 17.7 | 0.00 | 0.00 | 0.00 | 21 | 1015.0 |
| 20260906192521 | 31 | 98 | 9.7 | 17.7 | 0.00 | 0.00 | 0.00 | 22 | 1015.1 |
| 20260906192024 | 31 | 86 | 6.4 | 17.7 | 0.00 | 0.00 | 0.00 | 21 | 1015.2 |
| 20260906191547 | 31 | 56 | 8.0 | 17.7 | 0.00 | 0.00 | 0.00 | 22 | 1015.3 |
| 20260906191024 | 31 | 85 | 9.7 | 19.3 | 0.00 | 0.00 | 0.00 | 22 | 1015.3 |
| 20260906190523 | 31 | 78 | 9.7 | 19.3 | 0.00 | 0.00 | 0.00 | 24 | 1015.4 |
| 20260906190042 | 31 | 103 | 6.4 | 14.5 | 0.00 | 0.00 | 0.00 | 24 | 1015.4 |
| 20260906185523 | 31 | 86 | 8.0 | 17.7 | 0.00 | 0.00 | 0.00 | 22 | 1015.5 |
| 20260906185018 | 31 | 141 | 4.8 | 17.7 | 0.00 | 0.00 | 0.00 | 25 | 1015.6 |
| 20260906184544 | 31 | 107 | 6.4 | 17.7 | 0.00 | 0.00 | 0.00 | 25 | 1015.6 |
| 20260906184023 | 31 | 76 | 3.2 | 14.5 | 0.00 | 0.00 | 0.00 | 25 | 1015.7 |
| 20260906183518 | 30 | 134 | 8.0 | 17.7 | 0.00 | 0.00 | 0.00 | 25 | 1015.8 |
| 20260906183059 | 31 | 104 | 9.7 | 17.7 | 0.00 | 0.00 | 0.00 | 23 | 1015.9 |
| 20260906182521 | 31 | 69 | 6.4 | 11.3 | 0.00 | 0.00 | 0.00 | 24 | 1015.9 |
| 20260906182022 | 30 | 78 | 4.8 | 16.1 | 0.00 | 0.00 | 0.00 | 24 | 1016.0 |
| 20260906181546 | 30 | 57 | 1.6 | 16.1 | 0.00 | 0.00 | 0.00 | 25 | 1016.1 |
| 20260906181024 | 30 | 73 | 9.7 | 16.1 | 0.00 | 0.00 | 0.00 | 24 | 1016.2 |
| 20260906180520 | 30 | 275 | 3.2 | 16.1 | 0.00 | 0.00 | 0.00 | 23 | 1016.3 |
| 20260906180100 | 30 | 313 | 4.8 | 16.1 | 0.00 | 0.00 | 0.00 | 24 | 1016.3 |
| 20260906175527 | 30 | 56 | 8.0 | 16.1 | 0.00 | 0.00 | 0.00 | 25 | 1016.3 |
| 20260906175023 | 30 | 133 | 8.0 | 14.5 | 0.00 | 0.00 | 0.00 | 25 | 1016.4 |
| 20260906174550 | 30 | 77 | 6.4 | 17.7 | 0.00 | 0.00 | 0.00 | 25 | 1016.5 |
| 20260906174019 | 30 | 117 | 8.0 | 17.7 | 0.00 | 0.00 | 0.00 | 26 | 1016.5 |
| 20260906173523 | 30 | 109 | 11.3 | 17.7 | 0.00 | 0.00 | 0.00 | 27 | 1016.7 |
| 20260906173046 | 30 | 83 | 6.4 | 16.1 | 0.00 | 0.00 | 0.00 | 25 | 1016.6 |
| 20260906172521 | 30 | 78 | 4.8 | 16.1 | 0.00 | 0.00 | 0.00 | 25 | 1016.7 |
| 20260906172018 | 30 | 86 | 4.8 | 12.9 | 0.00 | 0.00 | 0.00 | 25 | 1016.7 |
| 20260906171611 | 30 | 0 | 3.2 | 12.9 | 0.00 | 0.00 | 0.00 | 25 | 1016.8 |
| 20260906171020 | 30 | 73 | 4.8 | 11.3 | 0.00 | 0.00 | 0.00 | 26 | 1016.9 |
| 20260906170518 | 30 | 0 | 3.2 | 11.3 | 0.00 | 0.00 | 0.00 | 25 | 1016.9 |
| 20260906170049 | 30 | 58 | 3.2 | 12.9 | 0.00 | 0.00 | 0.00 | 26 | 1017.0 |
| 20260906165524 | 30 | 67 | 4.8 | 14.5 | 0.00 | 0.00 | 0.00 | 26 | 1017.0 |
| 20260906165024 | 30 | 52 | 4.8 | 14.5 | 0.00 | 0.00 | 0.00 | 26 | 1017.1 |
| 20260906164544 | 30 | 64 | 6.4 | 14.5 | 0.00 | 0.00 | 0.00 | 27 | 1017.1 |
| 20260906164019 | 30 | 66 | 1.6 | 9.7 | 0.00 | 0.00 | 0.00 | 27 | 1017.2 |
| 20260906163519 | 30 | 300 | 3.2 | 11.3 | 0.00 | 0.00 | 0.00 | 28 | 1017.3 |
| 20260906163043 | 30 | 98 | 3.2 | 11.3 | 0.00 | 0.00 | 0.00 | 28 | 1017.4 |
| 20260906162518 | 30 | 238 | 1.6 | 6.4 | 0.00 | 0.00 | 0.00 | 27 | 1017.4 |
| 20260906162020 | 29 | 42 | 1.6 | 8.0 | 0.00 | 0.00 | 0.00 | 28 | 1017.4 |
| 20260906161554 | 28 | 61 | 0.0 | 11.3 | 0.00 | 0.00 | 0.00 | 29 | 1017.4 |
| 20260906161020 | 28 | 53 | 3.2 | 11.3 | 0.00 | 0.00 | 0.00 | 29 | 1017.4 |
| 20260906160520 | 28 | 86 | 4.8 | 9.7 | 0.00 | 0.00 | 0.00 | 29 | 1017.4 |
| 20260906160040 | 28 | 77 | 1.6 | 9.7 | 0.00 | 0.00 | 0.00 | 30 | 1017.5 |
| 20260906155520 | 28 | 57 | 3.2 | 9.7 | 0.00 | 0.00 | 0.00 | 30 | 1017.5 |
| 20260906155020 | 28 | 48 | 3.2 | 8.0 | 0.00 | 0.00 | 0.00 | 30 | 1017.5 |
| 20260906154548 | 28 | 72 | 1.6 | 8.0 | 0.00 | 0.00 | 0.00 | 31 | 1017.4 |
| 20260906154025 | 28 | 78 | 3.2 | 8.0 | 0.00 | 0.00 | 0.00 | 30 | 1017.4 |
| 20260906153524 | 28 | 71 | 3.2 | 8.0 | 0.00 | 0.00 | 0.00 | 30 | 1017.3 |
| 20260906153102 | 28 | 159 | 1.6 | 8.0 | 0.00 | 0.00 | 0.00 | 30 | 1017.2 |
| 20260906152519 | 28 | 93 | 3.2 | 8.0 | 0.00 | 0.00 | 0.00 | 30 | 1017.1 |
| 20260906152017 | 27 | 53 | 3.2 | 14.5 | 0.00 | 0.00 | 0.00 | 31 | 1017.1 |
| 20260906151542 | 27 | 95 | 3.2 | 14.5 | 0.00 | 0.00 | 0.00 | 31 | 1017.1 |
| 20260906151017 | 27 | 92 | 3.2 | 11.3 | 0.00 | 0.00 | 0.00 | 31 | 1017.2 |
| 20260906150524 | 27 | 96 | 4.8 | 11.3 | 0.00 | 0.00 | 0.00 | 32 | 1017.2 |
| 20260906150046 | 27 | 119 | 3.2 | 8.0 | 0.00 | 0.00 | 0.00 | 32 | 1017.3 |
| 20260906145520 | 27 | 90 | 3.2 | 6.4 | 0.00 | 0.00 | 0.00 | 31 | 1017.4 |
| 20260906145019 | 27 | 84 | 1.6 | 4.8 | 0.00 | 0.00 | 0.00 | 32 | 1017.4 |
| 20260906144543 | 27 | 84 | 1.6 | 4.8 | 0.00 | 0.00 | 0.00 | 33 | 1017.3 |
| 20260906144018 | 26 | 84 | 0.0 | 4.8 | 0.00 | 0.00 | 0.00 | 34 | 1017.4 |
| 20260906143519 | 26 | 0 | 0.0 | 4.8 | 0.00 | 0.00 | 0.00 | 35 | 1017.4 |
| 20260906143042 | 25 | 84 | 0.0 | 3.2 | 0.00 | 0.00 | 0.00 | 37 | 1017.5 |
| 20260906142518 | 25 | 0 | 0.0 | 4.8 | 0.00 | 0.00 | 0.00 | 36 | 1017.4 |
| 20260906142023 | 25 | 82 | 0.0 | 4.8 | 0.00 | 0.00 | 0.00 | 38 | 1017.5 |
| 20260906141547 | 24 | 82 | 0.0 | 3.2 | 0.00 | 0.00 | 0.00 | 39 | 1017.5 |
| 20260906141017 | 23 | 0 | 0.0 | 3.2 | 0.00 | 0.00 | 0.00 | 40 | 1017.5 |
| 20260906140518 | 23 | 0 | 0.0 | 3.2 | 0.00 | 0.00 | 0.00 | 41 | 1017.4 |
| 20260906140041 | 23 | 92 | 1.6 | 9.7 | 0.00 | 0.00 | 0.00 | 42 | 1017.4 |
| 20260906135525 | 22 | 83 | 0.0 | 9.7 | 0.00 | 0.00 | 0.00 | 43 | 1017.3 |
| 20260906135019 | 22 | 81 | 3.2 | 9.7 | 0.00 | 0.00 | 0.00 | 44 | 1017.3 |
| 20260906134542 | 22 | 187 | 1.6 | 6.4 | 0.00 | 0.00 | 0.00 | 43 | 1017.3 |
| 20260906134018 | 22 | 186 | 0.0 | 6.4 | 0.00 | 0.00 | 0.00 | 44 | 1017.3 |
| 20260906133518 | 22 | 186 | 1.6 | 6.4 | 0.00 | 0.00 | 0.00 | 46 | 1017.3 |
| 20260906133045 | 21 | 211 | 3.2 | 4.8 | 0.00 | 0.00 | 0.00 | 46 | 1017.1 |
| 20260906132523 | 21 | 210 | 0.0 | 4.8 | 0.00 | 0.00 | 0.00 | 44 | 1017.3 |
| 20260906132018 | 21 | 0 | 0.0 | 4.8 | 0.00 | 0.00 | 0.00 | 45 | 1017.4 |
| 20260906131557 | 21 | 209 | 1.6 | 8.0 | 0.00 | 0.00 | 0.00 | 46 | 1017.3 |
| 20260906131021 | 21 | 210 | 3.2 | 8.0 | 0.00 | 0.00 | 0.00 | 45 | 1017.3 |
| 20260906130519 | 21 | 273 | 3.2 | 9.7 | 0.00 | 0.00 | 0.00 | 45 | 1017.2 |
| 20260906130054 | 21 | 273 | 3.2 | 9.7 | 0.00 | 0.00 | 0.00 | 45 | 1017.2 |
| 20260906125519 | 21 | 269 | 3.2 | 12.9 | 0.00 | 0.00 | 0.00 | 45 | 1017.2 |
| 20260906125019 | 21 | 237 | 3.2 | 12.9 | 0.00 | 0.00 | 0.00 | 45 | 1017.2 |
| 20260906124543 | 21 | 265 | 9.7 | 14.5 | 0.00 | 0.00 | 0.00 | 45 | 1017.1 |
| 20260906124021 | 21 | 275 | 9.7 | 14.5 | 0.00 | 0.00 | 0.00 | 45 | 1017.2 |
| 20260906123518 | 21 | 254 | 8.0 | 14.5 | 0.00 | 0.00 | 0.00 | 45 | 1017.2 |
| 20260906123042 | 21 | 283 | 8.0 | 12.9 | 0.00 | 0.00 | 0.00 | 45 | 1017.2 |
| 20260906122520 | 21 | 274 | 8.0 | 11.3 | 0.00 | 0.00 | 0.00 | 46 | 1017.2 |
| 20260906122018 | 21 | 239 | 1.6 | 12.9 | 0.00 | 0.00 | 0.00 | 45 | 1017.2 |
| 20260906121541 | 21 | 249 | 4.8 | 12.9 | 0.00 | 0.00 | 0.00 | 46 | 1017.1 |
| 20260906121029 | 21 | 263 | 6.4 | 11.3 | 0.00 | 0.00 | 0.00 | 46 | 1017.2 |
| 20260906120527 | 21 | 259 | 3.2 | 11.3 | 0.00 | 0.00 | 0.00 | 46 | 1017.2 |
| 20260906120045 | 21 | 254 | 6.4 | 11.3 | 0.00 | 0.00 | 0.00 | 46 | 1017.1 |
| 20260906115524 | 20 | 282 | 6.4 | 12.9 | 0.00 | 0.00 | 0.00 | 46 | 1017.1 |
| 20260906115018 | 21 | 244 | 8.0 | 12.9 | 0.00 | 0.00 | 0.00 | 46 | 1017.2 |
| 20260906114548 | 20 | 263 | 6.4 | 12.9 | 0.00 | 0.00 | 0.00 | 47 | 1017.1 |
| 20260906114019 | 19 | 238 | 8.0 | 11.3 | 0.00 | 0.00 | 0.00 | 50 | 1017.2 |
| 20260906113521 | 18 | 252 | 1.6 | 6.4 | 0.00 | 0.00 | 0.00 | 51 | 1017.2 |
| 20260906113042 | 18 | 247 | 3.2 | 6.4 | 0.00 | 0.00 | 0.00 | 50 | 1017.2 |
| 20260906112517 | 19 | 248 | 1.6 | 6.4 | 0.00 | 0.00 | 0.00 | 49 | 1017.1 |
| 20260906112020 | 19 | 249 | 3.2 | 6.4 | 0.00 | 0.00 | 0.00 | 48 | 1017.1 |
| 20260906111547 | 20 | 262 | 3.2 | 6.4 | 0.00 | 0.00 | 0.00 | 48 | 1017.1 |
| 20260906111024 | 20 | 263 | 3.2 | 6.4 | 0.00 | 0.00 | 0.00 | 47 | 1017.2 |
| 20260906110518 | 20 | 290 | 3.2 | 6.4 | 0.00 | 0.00 | 0.00 | 48 | 1017.1 |
| 20260906110044 | 20 | 292 | 0.0 | 3.2 | 0.00 | 0.00 | 0.00 | 48 | 1017.2 |
| 20260906105524 | 20 | 0 | 0.0 | 1.6 | 0.00 | 0.00 | 0.00 | 46 | 1017.1 |
| 20260906105024 | 20 | 0 | 0.0 | 1.6 | 0.00 | 0.00 | 0.00 | 46 | 1017.1 |
| 20260906104541 | 20 | 0 | 0.0 | 4.8 | 0.00 | 0.00 | 0.00 | 46 | 1017.1 |
| 20260906104019 | 21 | 0 | 0.0 | 4.8 | 0.00 | 0.00 | 0.00 | 46 | 1017.0 |
| 20260906103519 | 21 | 0 | 1.6 | 4.8 | 0.00 | 0.00 | 0.00 | 46 | 1017.1 |
| 20260906103047 | 20 | 292 | 3.2 | 6.4 | 0.00 | 0.00 | 0.00 | 47 | 1017.1 |
| 20260906102519 | 20 | 293 | 0.0 | 6.4 | 0.00 | 0.00 | 0.00 | 47 | 1017.0 |
| 20260906102019 | 20 | 294 | 3.2 | 6.4 | 0.00 | 0.00 | 0.00 | 47 | 1017.0 |
| 20260906101544 | 20 | 269 | 1.6 | 6.4 | 0.00 | 0.00 | 0.00 | 46 | 1016.9 |
| 20260906101017 | 20 | 0 | 0.0 | 6.4 | 0.00 | 0.00 | 0.00 | 46 | 1016.8 |
| 20260906100528 | 20 | 275 | 0.0 | 6.4 | 0.00 | 0.00 | 0.00 | 46 | 1016.8 |
| 20260906100042 | 20 | 0 | 0.0 | 6.4 | 0.00 | 0.00 | 0.00 | 46 | 1016.8 |
| 20260906095525 | 21 | 275 | 1.6 | 6.4 | 0.00 | 0.00 | 0.00 | 45 | 1016.8 |
| 20260906095019 | 21 | 176 | 1.6 | 11.3 | 0.00 | 0.00 | 0.00 | 43 | 1016.8 |
| 20260906094545 | 21 | 274 | 3.2 | 14.5 | 0.00 | 0.00 | 0.00 | 42 | 1016.7 |
| 20260906094023 | 21 | 279 | 8.0 | 14.5 | 0.00 | 0.00 | 0.00 | 42 | 1016.7 |
| 20260906093519 | 21 | 275 | 6.4 | 12.9 | 0.00 | 0.00 | 0.00 | 43 | 1016.6 |
| 20260906093045 | 21 | 244 | 4.8 | 11.3 | 0.00 | 0.00 | 0.00 | 43 | 1016.6 |
| 20260906092520 | 21 | 283 | 6.4 | 11.3 | 0.00 | 0.00 | 0.00 | 43 | 1016.5 |
| 20260906092018 | 21 | 271 | 3.2 | 6.4 | 0.00 | 0.00 | 0.00 | 44 | 1016.7 |
| 20260906091549 | 22 | 253 | 1.6 | 4.8 | 0.00 | 0.00 | 0.00 | 43 | 1016.7 |
| 20260906091021 | 21 | 254 | 3.2 | 4.8 | 0.00 | 0.00 | 0.00 | 44 | 1016.7 |
| 20260906090523 | 21 | 252 | 0.0 | 8.0 | 0.00 | 0.00 | 0.00 | 43 | 1016.8 |
| 20260906090052 | 22 | 0 | 1.6 | 11.3 | 0.00 | 0.00 | 0.00 | 43 | 1016.9 |
| 20260906085519 | 21 | 290 | 4.8 | 11.3 | 0.00 | 0.00 | 0.00 | 44 | 1016.8 |
| 20260906085023 | 21 | 281 | 6.4 | 11.3 | 0.00 | 0.00 | 0.00 | 45 | 1016.8 |
| 20260906084543 | 21 | 289 | 3.2 | 6.4 | 0.00 | 0.00 | 0.00 | 45 | 1016.9 |
| 20260906084030 | 21 | 288 | 0.0 | 6.4 | 0.00 | 0.00 | 0.00 | 44 | 1017.0 |
| 20260906083521 | 21 | 286 | 3.2 | 9.7 | 0.00 | 0.00 | 0.00 | 44 | 1017.0 |
| 20260906083047 | 21 | 0 | 3.2 | 9.7 | 0.00 | 0.00 | 0.00 | 44 | 1017.0 |
| 20260906082520 | 21 | 267 | 4.8 | 9.7 | 0.00 | 0.00 | 0.00 | 44 | 1017.0 |
| 20260906082018 | 21 | 282 | 3.2 | 6.4 | 0.00 | 0.00 | 0.00 | 43 | 1017.0 |
| 20260906081541 | 21 | 0 | 0.0 | 3.2 | 0.00 | 0.00 | 0.00 | 43 | 1017.1 |
| 20260906081024 | 21 | 0 | 0.0 | 3.2 | 0.00 | 0.00 | 0.00 | 42 | 1017.0 |
| 20260906080524 | 21 | 0 | 0.0 | 4.8 | 0.00 | 0.00 | 0.00 | 43 | 1017.0 |
| 20260906080046 | 22 | 65 | 1.6 | 8.0 | 0.00 | 0.00 | 0.00 | 41 | 1017.0 |
| 20260906075613 | 22 | 74 | 3.2 | 8.0 | 0.00 | 0.00 | 0.00 | 39 | 1017.1 |
| 20260906075018 | 23 | 0 | 0.0 | 14.5 | 0.00 | 0.00 | 0.00 | 37 | 1017.0 |
| 20260906074543 | 24 | 300 | 0.0 | 14.5 | 0.00 | 0.00 | 0.00 | 38 | 1016.7 |
| 20260906074020 | 23 | 292 | 6.4 | 14.5 | 0.00 | 0.00 | 0.00 | 40 | 1016.5 |
| 20260906073518 | 23 | 287 | 4.8 | 11.3 | 0.00 | 0.00 | 0.00 | 40 | 1016.5 |
| 20260906073043 | 22 | 309 | 1.6 | 8.0 | 0.00 | 0.00 | 0.00 | 42 | 1016.6 |
| 20260906072518 | 22 | 348 | 1.6 | 4.8 | 0.00 | 0.00 | 0.00 | 42 | 1016.6 |
| 20260906072020 | 22 | 266 | 1.6 | 4.8 | 0.00 | 0.00 | 0.00 | 40 | 1016.7 |
| 20260906071540 | 22 | 233 | 1.6 | 4.8 | 0.00 | 0.00 | 0.00 | 39 | 1016.6 |
| 20260906071024 | 23 | 234 | 1.6 | 3.2 | 0.00 | 0.00 | 0.00 | 38 | 1016.7 |
| 20260906070518 | 23 | 233 | 0.0 | 14.5 | 0.00 | 0.00 | 0.00 | 36 | 1016.7 |
| 20260906070045 | 23 | 0 | 1.6 | 14.5 | 0.00 | 0.00 | 0.00 | 36 | 1016.7 |
| 20260906065523 | 23 | 267 | 6.4 | 17.7 | 0.00 | 0.00 | 0.00 | 36 | 1016.7 |
| 20260906065022 | 24 | 263 | 9.7 | 17.7 | 0.00 | 0.00 | 0.00 | 35 | 1016.7 |
| 20260906064543 | 24 | 265 | 9.7 | 16.1 | 0.00 | 0.00 | 0.00 | 35 | 1016.8 |
| 20260906064017 | 23 | 313 | 6.4 | 11.3 | 0.00 | 0.00 | 0.00 | 35 | 1016.8 |
| 20260906063521 | 23 | 272 | 3.2 | 12.9 | 0.00 | 0.00 | 0.00 | 35 | 1016.8 |
| 20260906063043 | 23 | 266 | 6.4 | 16.1 | 0.00 | 0.00 | 0.00 | 34 | 1016.8 |
| 20260906062525 | 23 | 281 | 11.3 | 16.1 | 0.00 | 0.00 | 0.00 | 34 | 1017.0 |
| 20260906062019 | 23 | 244 | 4.8 | 12.9 | 0.00 | 0.00 | 0.00 | 34 | 1016.9 |
| 20260906061549 | 24 | 254 | 4.8 | 12.9 | 0.00 | 0.00 | 0.00 | 34 | 1017.0 |
| 20260906061020 | 25 | 209 | 4.8 | 14.5 | 0.00 | 0.00 | 0.00 | 33 | 1017.1 |
| 20260906060523 | 24 | 241 | 9.7 | 14.5 | 0.00 | 0.00 | 0.00 | 37 | 1017.0 |
| 20260906060054 | 23 | 317 | 0.0 | 4.8 | 0.00 | 0.00 | 0.00 | 33 | 1017.2 |
| 20260906055524 | 23 | 318 | 1.6 | 6.4 | 0.00 | 0.00 | 0.00 | 33 | 1017.3 |
| 20260906055020 | 23 | 244 | 0.0 | 6.4 | 0.00 | 0.00 | 0.00 | 32 | 1017.2 |
| 20260906054546 | 22 | 238 | 1.6 | 6.4 | 0.00 | 0.00 | 0.00 | 33 | 1017.1 |
| 20260906054019 | 22 | 238 | 3.2 | 6.4 | 0.00 | 0.00 | 0.00 | 34 | 1017.1 |
| 20260906053521 | 22 | 236 | 3.2 | 6.4 | 0.00 | 0.00 | 0.00 | 34 | 1017.1 |
| 20260906053043 | 23 | 242 | 3.2 | 6.4 | 0.00 | 0.00 | 0.00 | 33 | 1017.2 |
| 20260906052520 | 23 | 267 | 3.2 | 6.4 | 0.00 | 0.00 | 0.00 | 32 | 1017.1 |
| 20260906052018 | 24 | 271 | 4.8 | 6.4 | 0.00 | 0.00 | 0.00 | 32 | 1017.1 |
| 20260906051541 | 24 | 261 | 1.6 | 6.4 | 0.00 | 0.00 | 0.00 | 32 | 1017.2 |
| 20260906051021 | 24 | 261 | 3.2 | 6.4 | 0.00 | 0.00 | 0.00 | 32 | 1017.3 |
| 20260906050527 | 24 | 153 | 1.6 | 8.0 | 0.00 | 0.00 | 0.00 | 31 | 1017.4 |
| 20260906050045 | 24 | 0 | 1.6 | 8.0 | 0.00 | 0.00 | 0.00 | 32 | 1017.3 |
| 20260906045524 | 24 | 275 | 1.6 | 6.4 | 0.00 | 0.00 | 0.00 | 30 | 1017.1 |
| 20260906045019 | 24 | 281 | 3.2 | 6.4 | 0.00 | 0.00 | 0.00 | 31 | 1017.2 |
| 20260906044542 | 24 | 142 | 0.0 | 4.8 | 0.00 | 0.00 | 0.00 | 30 | 1017.2 |
| 20260906044020 | 25 | 138 | 1.6 | 4.8 | 0.00 | 0.00 | 0.00 | 29 | 1017.1 |
| 20260906043521 | 25 | 128 | 0.0 | 4.8 | 0.00 | 0.00 | 0.00 | 31 | 1017.1 |
| 20260906043040 | 25 | 128 | 0.0 | 4.8 | 0.00 | 0.00 | 0.00 | 31 | 1017.1 |
| 20260906042523 | 25 | 128 | 1.6 | 6.4 | 0.00 | 0.00 | 0.00 | 29 | 1017.1 |
| 20260906042024 | 25 | 0 | 3.2 | 20.9 | 0.00 | 0.00 | 0.00 | 28 | 1017.2 |
| 20260906041546 | 26 | 164 | 11.3 | 20.9 | 0.00 | 0.00 | 0.00 | 28 | 1016.9 |
| 20260906041024 | 26 | 196 | 4.8 | 9.7 | 0.00 | 0.00 | 0.00 | 27 | 1016.8 |
| 20260906040524 | 26 | 249 | 4.8 | 9.7 | 0.00 | 0.00 | 0.00 | 28 | 1017.1 |
| 20260906040045 | 26 | 311 | 4.8 | 8.0 | 0.00 | 0.00 | 0.00 | 29 | 1017.1 |
| 20260906035518 | 26 | 290 | 1.6 | 8.0 | 0.00 | 0.00 | 0.00 | 28 | 1017.2 |
| 20260906035018 | 26 | 59 | 3.2 | 8.0 | 0.00 | 0.00 | 0.00 | 26 | 1017.1 |
| 20260906034557 | 26 | 69 | 3.2 | 8.0 | 0.00 | 0.00 | 0.00 | 25 | 1017.2 |
| 20260906034020 | 26 | 61 | 1.6 | 6.4 | 0.00 | 0.00 | 0.00 | 26 | 1017.1 |
| 20260906033517 | 27 | 49 | 1.6 | 8.0 | 0.00 | 0.00 | 0.00 | 25 | 1017.1 |
| 20260906033044 | 27 | 305 | 0.0 | 8.0 | 0.00 | 0.00 | 0.00 | 24 | 1017.0 |
| 20260906032523 | 27 | 299 | 1.6 | 12.9 | 0.00 | 0.00 | 0.00 | 24 | 1017.0 |
| 20260906032025 | 27 | 0 | 0.0 | 19.3 | 0.00 | 0.00 | 0.00 | 24 | 1017.0 |
| 20260906031544 | 27 | 262 | 4.8 | 19.3 | 0.00 | 0.00 | 0.00 | 24 | 1016.8 |
| 20260906031024 | 27 | 267 | 11.3 | 19.3 | 0.00 | 0.00 | 0.00 | 24 | 1016.7 |
| 20260906030521 | 27 | 268 | 11.3 | 20.9 | 0.00 | 0.00 | 0.00 | 24 | 1016.8 |
| 20260906030044 | 28 | 248 | 6.4 | 20.9 | 0.00 | 0.00 | 0.00 | 23 | 1016.6 |
| 20260906025523 | 28 | 244 | 9.7 | 24.1 | 0.00 | 0.00 | 0.00 | 23 | 1016.6 |
| 20260906025018 | 28 | 234 | 11.3 | 24.1 | 0.00 | 0.00 | 0.00 | 22 | 1016.6 |
| 20260906024543 | 28 | 217 | 12.9 | 25.7 | 0.00 | 0.00 | 0.00 | 22 | 1016.5 |
| 20260906024022 | 28 | 222 | 11.3 | 25.7 | 0.00 | 0.00 | 0.00 | 21 | 1016.5 |
| 20260906023525 | 28 | 227 | 11.3 | 25.7 | 0.00 | 0.00 | 0.00 | 21 | 1016.5 |
| 20260906023040 | 28 | 216 | 11.3 | 25.7 | 0.00 | 0.00 | 0.00 | 21 | 1016.4 |
| 20260906022522 | 28 | 216 | 12.9 | 25.7 | 0.00 | 0.00 | 0.00 | 20 | 1016.4 |
| 20260906022020 | 28 | 245 | 14.5 | 27.4 | 0.00 | 0.00 | 0.00 | 19 | 1016.3 |
| 20260906021544 | 28 | 206 | 9.7 | 27.4 | 0.00 | 0.00 | 0.00 | 19 | 1016.3 |
| 20260906021017 | 28 | 210 | 11.3 | 22.5 | 0.00 | 0.00 | 0.00 | 19 | 1016.2 |
| 20260906020518 | 28 | 261 | 9.7 | 19.3 | 0.00 | 0.00 | 0.00 | 19 | 1016.1 |
| 20260906020042 | 28 | 176 | 8.0 | 24.1 | 0.00 | 0.00 | 0.00 | 19 | 1016.1 |
| 20260906015524 | 28 | 239 | 11.3 | 25.7 | 0.00 | 0.00 | 0.00 | 19 | 1016.1 |
| 20260906015025 | 28 | 204 | 8.0 | 25.7 | 0.00 | 0.00 | 0.00 | 19 | 1016.1 |
| 20260906014548 | 28 | 265 | 9.7 | 17.7 | 0.00 | 0.00 | 0.00 | 19 | 1016.2 |
| 20260906014028 | 28 | 254 | 8.0 | 17.7 | 0.00 | 0.00 | 0.00 | 20 | 1016.2 |
| 20260906013519 | 29 | 205 | 6.4 | 19.3 | 0.00 | 0.00 | 0.00 | 20 | 1016.2 |
| 20260906013044 | 29 | 236 | 4.8 | 19.3 | 0.00 | 0.00 | 0.00 | 20 | 1016.2 |
| 20260906012519 | 29 | 167 | 4.8 | 14.5 | 0.00 | 0.00 | 0.00 | 20 | 1016.4 |
| 20260906012019 | 29 | 171 | 3.2 | 11.3 | 0.00 | 0.00 | 0.00 | 19 | 1016.5 |
| 20260906011542 | 29 | 167 | 1.6 | 9.7 | 0.00 | 0.00 | 0.00 | 20 | 1016.4 |
| 20260906011021 | 29 | 241 | 4.8 | 9.7 | 0.00 | 0.00 | 0.00 | 19 | 1016.4 |
| 20260906010519 | 29 | 217 | 3.2 | 8.0 | 0.00 | 0.00 | 0.00 | 20 | 1016.3 |
| 20260906010054 | 29 | 265 | 1.6 | 6.4 | 0.00 | 0.00 | 0.00 | 20 | 1016.2 |
| 20260906005517 | 29 | 0 | 0.0 | 3.2 | 0.00 | 0.00 | 0.00 | 19 | 1016.4 |
| 20260906005020 | 29 | 0 | 0.0 | 1.6 | 0.00 | 0.00 | 0.00 | 19 | 1016.4 |
| 20260906004555 | 29 | 0 | 0.0 | 1.6 | 0.00 | 0.00 | 0.00 | 19 | 1016.4 |
| 20260906004026 | 29 | 0 | 0.0 | 1.6 | 0.00 | 0.00 | 0.00 | 19 | 1016.4 |
| 20260906003524 | 29 | 0 | 0.0 | 8.0 | 0.00 | 0.00 | 0.00 | 19 | 1016.4 |
| 20260906003043 | 30 | 0 | 0.0 | 11.3 | 0.00 | 0.00 | 0.00 | 20 | 1016.3 |
| 20260906002520 | 29 | 279 | 3.2 | 11.3 | 0.00 | 0.00 | 0.00 | 19 | 1016.3 |
| 20260906002019 | 30 | 245 | 1.6 | 6.4 | 0.00 | 0.00 | 0.00 | 19 | 1016.2 |
| 20260906001557 | 30 | 172 | 1.6 | 6.4 | 0.00 | 0.00 | 0.00 | 19 | 1016.2 |
| 20260906001018 | 30 | 78 | 1.6 | 4.8 | 0.00 | 0.00 | 0.00 | 18 | 1016.2 |
| 20260906000520 | 30 | 78 | 1.6 | 6.4 | 0.00 | 0.00 | 0.00 | 19 | 1016.3 |
| 20260906000047 | 30 | 0 | 0.0 | 6.4 | 0.00 | 0.00 | 0.00 | 18 | 1016.3 |
| 20260905235525 | 30 | 80 | 3.2 | 6.4 | 0.00 | 0.00 | 0.00 | 18 | 1016.3 |
| 20260905235024 | 30 | 111 | 0.0 | 4.8 | 0.00 | 0.00 | 0.00 | 18 | 1016.3 |
| 20260905234543 | 30 | 90 | 1.6 | 6.4 | 0.00 | 0.00 | 0.00 | 17 | 1016.3 |
| 20260905234019 | 30 | 0 | 0.0 | 6.4 | 0.00 | 0.00 | 0.00 | 17 | 1016.2 |
| 20260905233524 | 30 | 47 | 1.6 | 6.4 | 0.00 | 0.00 | 0.00 | 17 | 1016.3 |
| 20260905233044 | 30 | 78 | 1.6 | 6.4 | 0.00 | 0.00 | 0.00 | 16 | 1016.4 |
| 20260905232525 | 30 | 300 | 1.6 | 6.4 | 0.00 | 0.00 | 0.00 | 16 | 1016.4 |
| 20260905232022 | 31 | 49 | 1.6 | 6.4 | 0.00 | 0.00 | 0.00 | 16 | 1016.4 |
| 20260905231542 | 31 | 56 | 1.6 | 14.5 | 0.00 | 0.00 | 0.00 | 15 | 1016.3 |
| 20260905231028 | 31 | 34 | 3.2 | 14.5 | 0.00 | 0.00 | 0.00 | 15 | 1016.2 |
| 20260905230525 | 31 | 83 | 3.2 | 14.5 | 0.00 | 0.00 | 0.00 | 15 | 1016.1 |
| 20260905230043 | 31 | 67 | 3.2 | 9.7 | 0.00 | 0.00 | 0.00 | 15 | 1016.1 |
| 20260905225530 | 31 | 17 | 3.2 | 9.7 | 0.00 | 0.00 | 0.00 | 15 | 1016.1 |
| 20260905225019 | 31 | 264 | 3.2 | 9.7 | 0.00 | 0.00 | 0.00 | 14 | 1016.1 |
| 20260905224543 | 31 | 58 | 1.6 | 12.9 | 0.00 | 0.00 | 0.00 | 14 | 1016.0 |
| 20260905224018 | 32 | 64 | 3.2 | 12.9 | 0.00 | 0.00 | 0.00 | 14 | 1016.0 |
| 20260905223521 | 32 | 347 | 3.2 | 12.9 | 0.00 | 0.00 | 0.00 | 13 | 1016.1 |
| 20260905223050 | 32 | 67 | 3.2 | 8.0 | 0.00 | 0.00 | 0.00 | 13 | 1016.0 |
| 20260905222523 | 32 | 55 | 3.2 | 14.5 | 0.00 | 0.00 | 0.00 | 13 | 1016.0 |
| 20260905222025 | 32 | 0 | 3.2 | 14.5 | 0.00 | 0.00 | 0.00 | 13 | 1016.0 |
| 20260905221543 | 32 | 203 | 4.8 | 14.5 | 0.00 | 0.00 | 0.00 | 14 | 1016.1 |
| 20260905221025 | 32 | 53 | 0.0 | 12.9 | 0.00 | 0.00 | 0.00 | 14 | 1016.1 |
| 20260905220527 | 32 | 286 | 4.8 | 12.9 | 0.00 | 0.00 | 0.00 | 13 | 1016.1 |
| 20260905220045 | 32 | 300 | 3.2 | 14.5 | 0.00 | 0.00 | 0.00 | 13 | 1016.1 |
| 20260905215520 | 32 | 315 | 1.6 | 14.5 | 0.00 | 0.00 | 0.00 | 12 | 1016.2 |
| 20260905215019 | 32 | 78 | 4.8 | 14.5 | 0.00 | 0.00 | 0.00 | 12 | 1016.2 |
| 20260905214546 | 32 | 89 | 3.2 | 9.7 | 0.00 | 0.00 | 0.00 | 13 | 1016.3 |
| 20260905214020 | 32 | 344 | 3.2 | 9.7 | 0.00 | 0.00 | 0.00 | 12 | 1016.4 |
| 20260905213518 | 32 | 290 | 3.2 | 9.7 | 0.00 | 0.00 | 0.00 | 12 | 1016.5 |
| 20260905213041 | 32 | 163 | 3.2 | 12.9 | 0.00 | 0.00 | 0.00 | 13 | 1016.5 |
| 20260905212528 | 32 | 98 | 3.2 | 12.9 | 0.00 | 0.00 | 0.00 | 13 | 1016.5 |